OBJECT D, 43834

Orbit data source: Space-Track

You're viewing an Uncataloged Satellite

Recently launched and/or uncataloged satellites may have evolving metadata. Metadata may include but not limited to: Owner, Maufacturer, Bus, Motor, and Mission.

OBJECT D, 43834 is a satellite in SSO that was launched on Fri, 07 Dec 2018 UTC via a CHANG ZHENG 2D launch vehicle from the Jiuquan Satellite Launch Center, China (JSC). Unknown objects in Earth's orbit typically refer to objects detected orbiting the Earth but have not yet been identified or cataloged. These objects could be anything from previously untracked satellites, spent rocket stages, debris from satellite collisions, or even natural meteoroids temporarily captured by Earth's gravity.

Loading next visibility...
Identifier
43834, 2018-102D
Orbit
SSO
Country
Flag of TBDTBD
Related business
None
Manufacturer
GUOX/CTYK
Mission
Commercial Technology
Bus & Motor
CUBESAT 3U, Unknown motor
Mass
8 kg wet, 8 kg dry
Launch date (UTC)
2018-12-07 (7 years ago)
Launch vehicle
CHANG ZHENG 2D
Launch site
Jiuquan Satellite Launch Center, China (JSC)
Object type
Unknown
Shape & HBR
Box, 0.1 m
Radar Cross Section
0.080 m², Medium (>0.1 m² and < 1m²)

Expand to show TLE details & history
Last TLE update: 10 hours ago

TLE from 10 hours ago
0 OBJECT D
1 43834U 18102D   25258.28258795  .00034408  00000-0  79511-3 0  9997
2 43834  97.3724 335.3648 0006576   2.7634 357.3648 15.42414735374572
Epoch: 2025-09-15T06:46Z
TLE epoch observation values (Epoch: 2025-09-15T06:46:55.598Z)
Latitude
-0.0001°
Longitude
-120.85632°
Altitude
437.627 km
Speed
7.652 km/s
True Right ascension
22h 21m 27s
True Declination
0° 00' 00"
Sunlit
Object was in full shadow at epoch
Visualization orbit readout
Latitude
Unknown
Longitude
Unknown
Altitude
Unknown
Speed
Unknown
Apparent Right ascension
Unknown
Apparent Declination
Unknown
Sunlit
N/A
Visualization observer readout
Local Sidereal Time
09:26:50
Azimuth
Unknown
Elevation
Unknown
Doppler factor
Unknown
Orbital elements
Apogee altitude
440.4 km
Perigee altitude
431.439 km
Semi-major axis
6,814.057 km
Eccentricity
0.00066
Inclination
97.3724°
RAAN
335.3648°
Arg. of periapsis
2.7634°
True anomaly
357.36133°
Mean anomaly
357.3648°
Eccentric anomaly
357.36307°
Mean motion
3.85864 °/min
Orbital period
93.3 mins
BSTAR
0.00079511
Loading maneuver chart data...
Computing Atmospheric mass density...
Loading historical data...
Loading historical data...
Loading historical data...
Loading historical data...
Loading historical data...
Loading historical data...
Loading historical data...

Documentation

Showing up to 5 results
|